Address 0xee500c146927e0fccb1be04064288653b7b9ba06 2

Txn Hash Method
Block
From
To
Value [Txn Fee]
0x3cc74fb90efcd3ebe2b873c4053dc94a93f05f11ff6c8b8521b0d09dff43ee5dSet Approval For...122415622021-09-10 9:49:2514 days 5 hrs ago0xee500c146927e0fccb1be04064288653b7b9ba06OUT 0x390fdb435d4cad6a2a03dfb427656c8933572ff30 BNB0.00044901
0xf87e3db62866eb7848668c50a478fd97e8267d4cbe08755bdf67d838aa668ac5Open Boxes122261992021-09-09 20:53:1214 days 18 hrs ago0xee500c146927e0fccb1be04064288653b7b9ba06OUT 0x6267389f713e329a7037a4c5870d98ed089965490 BNB0.00152747
0xeaaec0cffc66c198bb8ce3f2df4ccdfb9eff97c69ccac16d96aa600db8ca0360Approve122261872021-09-09 20:52:3614 days 18 hrs ago0xee500c146927e0fccb1be04064288653b7b9ba06OUT 0x1138ebb3101f557b28326a28b6f192c7fecc95f70 BNB0.00044406
0x6a7b33447dead7725bda157e9230ac2ee4124ff2d867861d050282ca75aa906cApprove122254112021-09-09 20:13:4814 days 19 hrs ago0xee500c146927e0fccb1be04064288653b7b9ba06OUT 0x3e919a1284a374260d99276672d354fde2a09cc00 BNB0.00044509
0x02f01f991e167ffc9cc8c8716e7dd886428339974a7f9e6f7611edc2911c0d6cApprove122253852021-09-09 20:12:3014 days 19 hrs ago0xee500c146927e0fccb1be04064288653b7b9ba06OUT 0x1138ebb3101f557b28326a28b6f192c7fecc95f70 BNB0.00029406
0x0461d63c4c4d897c4957128323084ae6f89dc2007371ef532d2f384170481708Approve121613082021-09-07 14:45:1517 days 37 mins ago0xee500c146927e0fccb1be04064288653b7b9ba06OUT 0x390fdb435d4cad6a2a03dfb427656c8933572ff30 BNB0.00025171
0x98ac61ee38b9cb52cf60fb93c2558cc760a1bfe94b3da779ddabb09af802937aOpen Boxes117702542021-08-24 22:46:3530 days 16 hrs ago0xee500c146927e0fccb1be04064288653b7b9ba06OUT 0x1b6a6c5cc7aad2dc7cfb3dc28bb6d0e82a502dbb0 BNB0.00122747
0x28c4f54cd0e4b875acfe3d536fd311e8c060909b56a0edf92c0f80ae9089207bOpen Boxes117702532021-08-24 22:46:3230 days 16 hrs ago0xee500c146927e0fccb1be04064288653b7b9ba06OUT 0x1b6a6c5cc7aad2dc7cfb3dc28bb6d0e82a502dbb0 BNB0.0018186
0xf324fe88c4d7e1baf3717195e3e296fffda4a9fc214485527d0b249a89d8d620Approve117591922021-08-24 13:33:2931 days 1 hr ago0xee500c146927e0fccb1be04064288653b7b9ba06OUT 0x618549d304828c77dcb590d02e3641b03e6f41760 BNB0.00044406
0xae9eefeb7532d49ea63da700dbc6449af9a50fdb1df6899b18467d94feee459eApprove117591162021-08-24 13:29:4131 days 1 hr ago0xee500c146927e0fccb1be04064288653b7b9ba06OUT 0x1138ebb3101f557b28326a28b6f192c7fecc95f70 BNB0.00044406
0xf657bdbe7b326897451aef302a1489526df9f2f81205ea5f1d0179a57c09ea45Approve117591062021-08-24 13:29:1131 days 1 hr ago0xee500c146927e0fccb1be04064288653b7b9ba06OUT 0x4a291477c8901672bca0e4d2bf391587276a4a370 BNB0.00044406
0x96eec3ff047744ca2eaab61adff653b1db7e734890a61eac9b9ac7b4b1addc8cDeposit114453282021-08-13 13:51:4942 days 1 hr ago0xee500c146927e0fccb1be04064288653b7b9ba06OUT 0xc5247d23e3fc3ad016e53c008ad92a2e72e1b48d0 BNB0.00133326
0x62c48fb5bf5038797ae395b30f59331c7e8c517ffb21e3e79e021a32609d3a29Add Liquidity114453152021-08-13 13:51:1042 days 1 hr ago0xee500c146927e0fccb1be04064288653b7b9ba06OUT 0x354bc1cfe9959b96bed409859a726263c6c56c810 BNB0.00164624
0x904e3a903768769ab322c9ceef3437aa2ee3423d83def206e32f3c91ef06dae5Approve114452872021-08-13 13:49:4642 days 1 hr ago0xee500c146927e0fccb1be04064288653b7b9ba06OUT 0xab70ec86a21c2bc15a93492e59fa7d646e581ef70 BNB0.00044244
0x494856b6b3f4d940b80e9b3d82ed7e150ce8d9a2277a30d4c8d5f1361d33749eSwap Exact Token...114452712021-08-13 13:48:5842 days 1 hr ago0xee500c146927e0fccb1be04064288653b7b9ba06OUT 0x354bc1cfe9959b96bed409859a726263c6c56c810 BNB0.00155775
0x66622b9894aed3a1f3d26f4e604506b4e8d8478d1da57b01b6879c77752e6fd3Claim Rewards114385522021-08-13 8:13:0142 days 7 hrs ago0xee500c146927e0fccb1be04064288653b7b9ba06OUT 0xc5247d23e3fc3ad016e53c008ad92a2e72e1b48d0 BNB0.00326429
0x8f5cb727f3395b1533f91044a63caa4c458a02ba7d5fca253724e5b8375d3cbbClaim Reward114385122021-08-13 8:11:0142 days 7 hrs ago0xee500c146927e0fccb1be04064288653b7b9ba06OUT 0xc5247d23e3fc3ad016e53c008ad92a2e72e1b48d0 BNB0.00092155
0xe45e1098aad3f55f1de25c5d65152313a67bdcb12ca1ae5de3c8cd9a1bc17942Claim Reward114385092021-08-13 8:10:5242 days 7 hrs ago0xee500c146927e0fccb1be04064288653b7b9ba06OUT 0xc5247d23e3fc3ad016e53c008ad92a2e72e1b48d0 BNB0.00032387
0xc8850e81f175ba6b1537a67e14e8e40f778d27f685bb84533f1f44eda91e9781Deposit114385092021-08-13 8:10:5242 days 7 hrs ago0xee500c146927e0fccb1be04064288653b7b9ba06OUT 0xc5247d23e3fc3ad016e53c008ad92a2e72e1b48d0 BNB0.00066589
0xdb904bcc0114eae693c563958fa5055d8a722593cd173675337581509f86f843Withdraw114385092021-08-13 8:10:5242 days 7 hrs ago0xee500c146927e0fccb1be04064288653b7b9ba06OUT 0xc5247d23e3fc3ad016e53c008ad92a2e72e1b48d0 BNB0.00096877
0xe80f2b66c6b1986722e4b9cd4dc74a3acdc8636b45eaa140d2abd21fa221b9fcClaim Rewards114385092021-08-13 8:10:5242 days 7 hrs ago0xee500c146927e0fccb1be04064288653b7b9ba06OUT 0xc5247d23e3fc3ad016e53c008ad92a2e72e1b48d0 BNB0.00078013
0xcf47448d5aaf754dfcdf8c4fef68db2fbcfa9961721f98885d5ccf2e7b1ab8fdClaim Rewards114385092021-08-13 8:10:5242 days 7 hrs ago0xee500c146927e0fccb1be04064288653b7b9ba06OUT 0xc5247d23e3fc3ad016e53c008ad92a2e72e1b48d0 BNB0.00044371
0xd9d794d5c52139e8fed4d1895ba58d96b273873cd60c5b5464516248eb07249aClaim Rewards114385092021-08-13 8:10:5242 days 7 hrs ago0xee500c146927e0fccb1be04064288653b7b9ba06OUT 0xc5247d23e3fc3ad016e53c008ad92a2e72e1b48d0 BNB0.00100178
0x4a6d74b4ff4b4743648e29d89827cbd92bec57ea2321e2c41ee5115432fac073Deposit114385092021-08-13 8:10:5242 days 7 hrs ago0xee500c146927e0fccb1be04064288653b7b9ba06OUT 0xc5247d23e3fc3ad016e53c008ad92a2e72e1b48d0 BNB0.00062401
0xde8165d7e2ca5a9411693e689f980589c627b249584a2a7ad2593ff44378cd66Claim Rewards114385092021-08-13 8:10:5242 days 7 hrs ago0xee500c146927e0fccb1be04064288653b7b9ba06OUT 0xc5247d23e3fc3ad016e53c008ad92a2e72e1b48d0 BNB0.00100178
[ Download CSV Export 
Latest 6 internal transactions
Parent Txn Hash Block From To Value
0x016a7f920f82af66d0e1b549824dbb1d1143ace78751816a54150f0b2b242e07102424512021-07-02 12:59:1884 days 2 hrs ago 0x354bc1cfe9959b96bed409859a726263c6c56c810xee500c146927e0fccb1be04064288653b7b9ba060.001808319737478546 BNB
0x7864d0313e0335dca61199963ca28ef7c99d0b546049b2efef5610fabd4446ff102424352021-07-02 12:58:3084 days 2 hrs ago 0x354bc1cfe9959b96bed409859a726263c6c56c810xee500c146927e0fccb1be04064288653b7b9ba060.001342540973881714 BNB
0xd2830a539e38911db91ebc6967014d18faf113ac80dbcff24bb6bef66bdcab03102127162021-07-01 12:12:3385 days 3 hrs ago 0x354bc1cfe9959b96bed409859a726263c6c56c810xee500c146927e0fccb1be04064288653b7b9ba060.000482370700519753 BNB
0x3a11b78d08bb97086256728720c386828e468cbb84948d3e29c050f2ab97c725102119042021-07-01 11:31:5785 days 3 hrs ago 0x354bc1cfe9959b96bed409859a726263c6c56c810xee500c146927e0fccb1be04064288653b7b9ba061 wei
0x74563d5d21ce2f36719f06a92021ce57c70b6fc98c130ab51cdd5c722ccf6224102118862021-07-01 11:31:0385 days 3 hrs ago 0x354bc1cfe9959b96bed409859a726263c6c56c810xee500c146927e0fccb1be04064288653b7b9ba060.001141854027014624 BNB
0xf87a5374fc4c4b130180dd47a04f27a98a5bbd808962afd5a57309f516466d91102118202021-07-01 11:27:4585 days 3 hrs ago 0x354bc1cfe9959b96bed409859a726263c6c56c810xee500c146927e0fccb1be04064288653b7b9ba060.000011068859038493 BNB
[ Download CSV Export 
Loading

Contract Name:
0 BNB

Compiler Version
0

Optimization Enabled:
0 BNB

Other Settings:
-NA-
Block Transaction Gas Used Reward
Age Block Fee Address BC Fee Address Voting Power Jailed Incoming
Block Uncle Number Difficulty Gas Used Reward
Loading